Previsão horária em Abak

Hoje, 17 Abril, Sábado

Tempo Temperatura Precipitação Vento Pressão Humidade
00:00 +27°C° 0 mm 1 m/s 752 mmHg 84%
01:00 +27°C° 0 mm 1 m/s 751 mmHg 87%
02:00 +27°C° 0 mm 1 m/s 751 mmHg 87%
03:00 +27°C° 0 mm 1 m/s 751 mmHg 88%
04:00 +26°C° 0 mm 1 m/s 751 mmHg 89%
05:00 +27°C° 0 mm 1 m/s 751 mmHg 89%
06:00 +27°C° 0 mm 1 m/s 752 mmHg 88%
07:00 +27°C° 0 mm 1 m/s 752 mmHg 88%
08:00 +28°C° 0 mm 1 m/s 752 mmHg 82%
09:00 +29°C° 0 mm 1 m/s 753 mmHg 76%
10:00 +30°C° 0 mm 1 m/s 753 mmHg 71%
11:00 +32°C° 0 mm 1 m/s 753 mmHg 64%
12:00 +33°C° 0 mm 1 m/s 752 mmHg 57%
13:00 +36°C° 0 mm 2 m/s 751 mmHg 50%
14:00 +35°C° 0.1 mm 2 m/s 751 mmHg 52%
15:00 +35°C° 0.1 mm 2 m/s 750 mmHg 54%
16:00 +34°C° 0.1 mm 2 m/s 750 mmHg 57%
17:00 +32°C° 0.1 mm 2 m/s 750 mmHg 62%
18:00 +31°C° 0.1 mm 2 m/s 750 mmHg 67%
19:00 +30°C° 0.1 mm 2 m/s 751 mmHg 72%
20:00 +29°C° 0.9 mm 2 m/s 752 mmHg 77%
21:00 +28°C° 0.9 mm 1 m/s 752 mmHg 81%
22:00 +28°C° 0.9 mm 1 m/s 753 mmHg 85%
23:00 +27°C° 0.1 mm 1 m/s 753 mmHg 86%

Amanhã, 18 Abril, Domingo

Tempo Temperatura Precipitação Vento Pressão Humidade
00:00 +27°C° 0.1 mm 1 m/s 753 mmHg 87%
01:00 +27°C° 0.1 mm 1 m/s 752 mmHg 87%
02:00 +27°C° 0 mm 1 m/s 752 mmHg 88%
03:00 +27°C° 0 mm 1 m/s 752 mmHg 89%
04:00 +27°C° 0 mm 1 m/s 752 mmHg 89%
05:00 +27°C° 0 mm 1 m/s 753 mmHg 89%
06:00 +27°C° 0 mm 1 m/s 753 mmHg 89%
07:00 +27°C° 0 mm 1 m/s 754 mmHg 90%
08:00 +27°C° 0.1 mm 1 m/s 754 mmHg 88%
09:00 +27°C° 0.1 mm 1 m/s 754 mmHg 87%
10:00 +28°C° 0.1 mm 1 m/s 754 mmHg 86%
11:00 +28°C° 0 mm 1 m/s 754 mmHg 83%
12:00 +29°C° 0 mm 1 m/s 753 mmHg 79%
13:00 +28°C° 0 mm 0 m/s 753 mmHg 75%
14:00 +27°C° 0 mm 0 m/s 753 mmHg 76%
15:00 +27°C° 0 mm 0 m/s 752 mmHg 76%
16:00 +29°C° 0 mm 1 m/s 752 mmHg 77%
17:00 +27°C° 0 mm 0 m/s 752 mmHg 79%
18:00 +26°C° 0 mm 0 m/s 752 mmHg 81%
19:00 +26°C° 0 mm 0 m/s 752 mmHg 83%
20:00 +25°C° 0 mm 0 m/s 752 mmHg 85%
21:00 +27°C° 0 mm 1 m/s 752 mmHg 86%
22:00 +27°C° 0 mm 1 m/s 753 mmHg 87%
23:00 +26°C° 0 mm 1 m/s 753 mmHg 89%

Depois de amanhã, 19 Abril, Segunda-feira

Tempo Temperatura Precipitação Vento Pressão Humidade
00:00 +26°C° 0 mm 1 m/s 753 mmHg 90%
01:00 +26°C° 0 mm 1 m/s 752 mmHg 92%
02:00 +26°C° 0 mm 1 m/s 752 mmHg 92%
03:00 +26°C° 0 mm 1 m/s 752 mmHg 93%
04:00 +26°C° 0 mm 1 m/s 752 mmHg 93%
05:00 +26°C° 0 mm 1 m/s 752 mmHg 93%
06:00 +26°C° 0 mm 1 m/s 753 mmHg 92%
07:00 +27°C° 0 mm 1 m/s 753 mmHg 91%
08:00 +29°C° 0 mm 1 m/s 753 mmHg 82%
09:00 +30°C° 0 mm 2 m/s 754 mmHg 74%
10:00 +32°C° 0 mm 2 m/s 754 mmHg 65%
11:00 +32°C° 0.1 mm 2 m/s 754 mmHg 65%
12:00 +33°C° 0.1 mm 3 m/s 753 mmHg 65%
13:00 +33°C° 0.1 mm 3 m/s 753 mmHg 65%
14:00 +34°C° 0.1 mm 3 m/s 752 mmHg 61%
15:00 +34°C° 0.1 mm 3 m/s 752 mmHg 58%
16:00 +35°C° 0.1 mm 2 m/s 751 mmHg 55%
17:00 +32°C° 0 mm 2 m/s 751 mmHg 61%
18:00 +31°C° 0 mm 2 m/s 751 mmHg 68%
19:00 +29°C° 0 mm 2 m/s 752 mmHg 75%
20:00 +29°C° 0 mm 2 m/s 752 mmHg 78%
21:00 +28°C° 0 mm 2 m/s 752 mmHg 81%
22:00 +28°C° 0 mm 1 m/s 753 mmHg 85%
23:00 +27°C° 0 mm 1 m/s 753 mmHg 86%

20 Abril, Terça-feira

Tempo Temperatura Precipitação Vento Pressão Humidade
00:00 +27°C° 0 mm 1 m/s 752 mmHg 87%
01:00 +27°C° 0 mm 1 m/s 752 mmHg 88%
02:00 +27°C° 0 mm 1 m/s 752 mmHg 89%
03:00 +27°C° 0 mm 1 m/s 752 mmHg 90%
04:00 +26°C° 0 mm 1 m/s 751 mmHg 91%
05:00 +27°C° 0 mm 1 m/s 752 mmHg 90%
06:00 +27°C° 0 mm 1 m/s 752 mmHg 89%
07:00 +25°C° 0 mm 0 m/s 753 mmHg 89%
08:00 +29°C° 0 mm 1 m/s 753 mmHg 80%
09:00 +31°C° 0 mm 1 m/s 753 mmHg 71%
10:00 +34°C° 0 mm 2 m/s 754 mmHg 62%
11:00 +34°C° 0 mm 2 m/s 753 mmHg 61%
12:00 +34°C° 0 mm 2 m/s 752 mmHg 60%
13:00 +34°C° 0 mm 2 m/s 752 mmHg 59%
14:00 +34°C° 0.1 mm 2 m/s 751 mmHg 58%
15:00 +34°C° 0.1 mm 2 m/s 751 mmHg 58%
16:00 +35°C° 0.1 mm 2 m/s 750 mmHg 57%
17:00 +32°C° 0.1 mm 2 m/s 750 mmHg 64%
18:00 +31°C° 0.1 mm 2 m/s 751 mmHg 70%
19:00 +30°C° 0.1 mm 2 m/s 751 mmHg 77%
20:00 +29°C° 0 mm 2 m/s 751 mmHg 80%
21:00 +28°C° 0 mm 2 m/s 752 mmHg 84%
22:00 +28°C° 0 mm 2 m/s 752 mmHg 88%
23:00 +28°C° 0 mm 2 m/s 752 mmHg 89%

21 Abril, Quarta-feira

Tempo Temperatura Precipitação Vento Pressão Humidade
00:00 +27°C° 0 mm 1 m/s 752 mmHg 90%
01:00 +27°C° 0 mm 1 m/s 752 mmHg 91%
02:00 +27°C° 0 mm 1 m/s 752 mmHg 91%
03:00 +27°C° 0 mm 1 m/s 752 mmHg 90%
04:00 +27°C° 0 mm 1 m/s 752 mmHg 90%
05:00 +27°C° 0.5 mm 1 m/s 752 mmHg 90%
06:00 +27°C° 0.5 mm 1 m/s 753 mmHg 91%
07:00 +27°C° 0.5 mm 1 m/s 753 mmHg 91%
08:00 +29°C° 0 mm 1 m/s 753 mmHg 82%
09:00 +31°C° 0 mm 1 m/s 754 mmHg 74%
10:00 +31°C° 0 mm 0 m/s 754 mmHg 65%
11:00 +33°C° 0.4 mm 1 m/s 753 mmHg 61%
12:00 +34°C° 0.4 mm 1 m/s 753 mmHg 57%
13:00 +35°C° 0.4 mm 1 m/s 752 mmHg 53%
14:00 +36°C° 0 mm 2 m/s 751 mmHg 55%
15:00 +35°C° 0 mm 2 m/s 751 mmHg 56%
16:00 +35°C° 0 mm 2 m/s 750 mmHg 58%
17:00 +34°C° 0.2 mm 2 m/s 750 mmHg 64%
18:00 +31°C° 0.2 mm 3 m/s 751 mmHg 71%
19:00 +30°C° 0.2 mm 3 m/s 751 mmHg 78%
20:00 +29°C° 0.7 mm 3 m/s 751 mmHg 81%
21:00 +29°C° 0.7 mm 2 m/s 752 mmHg 84%
22:00 +28°C° 0.7 mm 1 m/s 753 mmHg 87%
23:00 +28°C° 0 mm 1 m/s 753 mmHg 88%

22 Abril, Quinta-feira

Tempo Temperatura Precipitação Vento Pressão Humidade
00:00 +28°C° 0 mm 1 m/s 753 mmHg 88%
01:00 +28°C° 0 mm 1 m/s 753 mmHg 89%
02:00 +27°C° 0.1 mm 1 m/s 752 mmHg 90%
03:00 +27°C° 0.1 mm 1 m/s 752 mmHg 91%
04:00 +27°C° 0.1 mm 1 m/s 752 mmHg 92%
05:00 +27°C° 0 mm 1 m/s 752 mmHg 92%
06:00 +27°C° 0 mm 1 m/s 752 mmHg 91%
07:00 +25°C° 0 mm 0 m/s 753 mmHg 90%
08:00 +29°C° 0 mm 1 m/s 753 mmHg 82%
09:00 +31°C° 0 mm 1 m/s 753 mmHg 75%
10:00 +32°C° 0 mm 2 m/s 754 mmHg 67%
11:00 +34°C° 0 mm 2 m/s 753 mmHg 62%
12:00 +35°C° 0 mm 2 m/s 752 mmHg 57%
13:00 +36°C° 0 mm 3 m/s 751 mmHg 52%
14:00 +35°C° 0.1 mm 3 m/s 751 mmHg 57%
15:00 +34°C° 0.1 mm 3 m/s 751 mmHg 62%
16:00 +33°C° 0.1 mm 3 m/s 750 mmHg 67%
17:00 +32°C° 0.5 mm 4 m/s 750 mmHg 71%
18:00 +30°C° 0.5 mm 4 m/s 751 mmHg 76%
19:00 +29°C° 0.5 mm 4 m/s 751 mmHg 81%
20:00 +29°C° 0.1 mm 3 m/s 751 mmHg 83%
21:00 +28°C° 0.1 mm 3 m/s 752 mmHg 85%
22:00 +28°C° 0.1 mm 2 m/s 752 mmHg 88%
23:00 +28°C° 0 mm 2 m/s 752 mmHg 89%
Mostrar mais